Location: Godshorn
(52.4371°N, 9.7076°E)
Time: 20:04:42
(UTC+00:00)

Daily predictions for brighter satellites

Satellite Brightness Start Highest point End
(mag) Time Altitude Azimuth Time Altitude Azimuth Time Altitude Azimuth
Cosmos 2233 Rocket 4.4 17:46:52 10° SSW 17:53:00 70° WNW 17:59:14 10° N
USA 267 3.4 17:46:54 10° ENE 17:53:30 83° NNW 18:00:06 10° WSW
Cosmos 1943 Rocket 2.6 17:48:34 10° NW 17:54:04 67° WSW 17:59:32 10° SSE
KORONAS-FOTON 4.1 17:51:03 10° NNW 17:54:45 70° W 17:58:24 10° S
Cosmos 2150 Rocket 4.0 17:49:53 10° NNW 17:55:01 62° ENE 18:00:06 10° SE
Iridium 4 Rocket 3.2 17:51:00 10° N 17:55:11 80° W 17:59:28 10° S
USA 186 3.3 17:53:24 10° ESE 17:55:45 19° ENE 17:58:07 10° NNE
SJ-6B 3.0 17:52:50 10° SE 17:56:13 40° ENE 17:59:37 10° N
Okean 3 Rocket 3.7 17:52:29 10° S 17:56:46 51° E 18:01:04 10° NNE
SL-08 R/B 4.0 17:53:01 10° NNE 17:57:32 35° E 18:02:00 10° SSE
NOSS 3-3 (A) 4.1 17:52:45 10° SSW 17:57:54 47° ESE 18:03:58 10° NE
Cosmos 2298 Rocket 4.1 17:52:48 10° NNW 17:58:06 66° ENE 18:03:23 10° SE
Cosmos 1408 Rocket 4.2 17:54:56 10° SSE 17:58:53 34° E 18:02:55 10° NNE
SeaSat 1 2.6 17:56:04 10° NE 18:00:53 51° ESE 18:05:39 10° SSW
Helios 1A 3.9 17:57:54 10° NE 18:01:20 25° E 18:04:44 10° SSE
Cosmos 158 Rocket 4.0 17:58:12 10° S 18:02:54 52° ESE 18:07:39 10° NNE
Cosmos 1513 Rocket 4.4 17:59:11 10° S 18:05:12 69° E 18:11:21 10° NNE
Sich 1 3.9 18:02:25 10° SSE 18:06:07 29° E 18:09:51 10° NNE
GEOS 3 Rocket 4.2 18:01:22 10° ESE 18:06:17 44° NNE 18:11:09 10° NW
COSMO-SKYMED 1 3.2 18:02:06 10° N 18:06:24 62° WNW 18:10:41 10° SSW
Okean O Rocket 3.0 18:04:11 10° ESE 18:07:31 21° ENE 18:10:51 10° N
Cosmos 1656 Rocket 3.9 18:02:18 10° NNW 18:07:52 54° NE 18:13:19 10° SE
CARTOSAT-1 4.3 18:04:41 10° SE 18:08:28 32° ENE 18:12:17 10° N
Cosmos 2297 4.0 18:03:48 10° NNW 18:09:18 50° NE 18:14:48 10° SE
Cosmos 1607 4.5 18:05:11 10° S 18:11:04 38° ESE 18:16:55 10° NE
Aureole 3 Rocket 4.0 18:07:47 10° SSE 18:12:19 30° E 18:15:51 10° NNE
Cosmos 2369 Rocket 2.6 18:08:36 10° NNW 18:14:08 47° NE 18:19:38 10° ESE
Helios 1B rocket 3.4 18:12:38 10° S 18:16:21 47° W 18:20:05 10° NNW
CZ-4 R/B 1.5 18:12:42 10° SE 18:16:28 50° ENE 18:20:20 10° N
GRACE-FO 1 4.4 18:13:11 10° SSE 18:16:40 63° E 18:20:10 10° N
TRACE 4.4 18:13:30 10° NNE 18:16:52 60° ESE 18:20:09 10° S
Meteor 1-23 Rocket 4.4 18:11:18 10° N 18:16:53 55° ENE 18:22:29 10° SSE
GRACE-FO 2 4.4 18:13:37 10° SSE 18:17:05 64° E 18:20:36 10° N
SPOT 5 4.3 18:14:53 11° E 18:17:25 16° NE 18:20:07 10° NNE
PAYLOAD B 4.4 18:12:05 10° SE 18:17:33 56° ENE 18:23:02 10° N
Cosmos 1464 Rocket 4.0 18:12:56 10° S 18:19:13 68° E 18:25:34 10° NNE
NOSS 3-4 (A) 3.8 18:14:09 10° NW 18:20:46 77° NE 18:28:29 10° SE
NOSS 3-4 (C) 3.8 18:14:14 10° NW 18:20:51 77° NE 18:28:34 10° SE
ARIANE 6 FM1 Upper Stage 4.4 18:18:49 10° SSE 18:20:58 14° ESE 18:21:45 13° ESE
Cosmos 1980 3.8 18:15:45 10° SSW 18:21:28 85° WNW 18:27:12 10° NNE
Terra 3.8 18:22:28 10° ENE 18:24:24 13° NE 18:26:22 10° NNE
CZ-4B R/B 3.0 18:22:13 10° SSE 18:26:14 61° ENE 18:30:24 10° N
Meteor 1-13 Rocket 4.4 18:20:23 10° NNW 18:26:16 84° W 18:31:57 10° S
Cosmos 2228 Rocket 4.0 18:25:17 10° N 18:29:22 31° ENE 18:32:38 14° SE
Cosmos 1805 Rocket 3.8 18:25:44 10° SSE 18:29:51 44° E 18:34:00 10° NNE
Cosmos 1441 Rocket 4.2 18:29:45 10° SE 18:32:35 23° E 18:35:26 10° NE
Resurs 01 Rocket 1.7 18:31:17 10° SSE 18:35:37 57° ENE 18:39:58 10° N
Cosmos 1975 3.5 18:32:16 10° SSE 18:35:43 31° E 18:39:12 10° NNE
Okean-O 3.8 18:39:41 18° ESE 18:41:48 26° ENE 18:45:27 10° N
Feng Yun 1-1 Rocket 4.4 18:36:19 10° SSE 18:42:07 64° ENE 18:48:00 10° NNW
Cosmos 1862 Rocket 4.4 18:38:06 10° N 18:42:08 32° ENE 18:44:35 19° ESE
Cosmos 1707 Rocket 4.1 18:41:09 10° N 18:45:19 38° ENE 18:47:57 19° SE
Cosmos 2034 Rocket 3.9 18:40:14 10° S 18:46:22 72° E 18:52:31 10° NNE
USA 306 2.3 18:43:37 10° WNW 18:46:51 76° NNE 18:48:52 25° E
ISS -3.8 18:44:07 10° W 18:47:28 80° S 18:49:13 26° E
Meteor PRIRODA 4.1 18:44:31 10° S 18:47:44 53° W 18:50:58 10° NNW
ERS-1 Rocket 4.3 18:46:19 17° E 18:48:22 22° ENE 18:52:13 10° N
Cosmos 2208 Rocket 4.2 18:46:57 10° SSW 18:52:16 80° WNW 18:57:42 10° NNE
Meteor 2-12 Rocket 4.5 18:46:36 10° N 18:52:45 64° ENE 18:58:50 10° SSE
Cosmos 1666 Rocket 4.4 18:51:16 22° SE 18:52:53 28° E 18:56:34 10° NNE
ACS3 Solar Sail 2.0 18:48:41 10° SSE 18:54:59 61° ENE 19:01:18 10° N
Cosmos 1733 4.3 18:51:59 10° SW 18:55:14 41° WNW 18:58:31 10° N
SL-16 R/B 2.2 18:50:41 10° SSW 18:56:14 59° ESE 19:01:48 10° NE
Cosmos 1315 Rocket 4.1 18:52:30 10° NNW 18:56:17 42° W 19:00:01 10° SSW
Cosmos 1805 3.0 18:55:12 10° S 18:58:50 89° W 19:02:32 10° N
Cosmos 1536 4.5 18:59:05 10° SW 19:02:37 35° WNW 19:06:13 10° N
Okean 3 3.6 19:02:48 10° N 19:06:52 49° ENE 19:08:31 31° SE
SL-14 R/B 3.7 19:04:52 10° NNW 19:08:38 60° W 19:12:25 10° S
ATLAS CENTAUR R/B 2.9 19:05:59 10° W 19:09:17 31° NNW 19:12:46 10° NNE
Cosmos 1943 4.0 19:07:43 24° SE 19:09:20 28° ESE 19:14:04 10° NE
Meteor 1-11 Rocket 4.2 19:03:54 10° SSW 19:09:23 61° WNW 19:14:53 10° N
ATLAS 2AS CENTAUR R/B 3.9 19:04:51 10° NW 19:11:11 34° N 19:16:26 14° ENE
Cosmos 783 Rocket 4.5 19:07:00 10° S 19:12:10 60° ESE 19:17:20 10° NNE
SL-24 R/B 4.4 19:09:51 22° SSE 19:12:47 56° E 19:17:35 10° N
Meteor 1-21 4.3 19:07:56 10° NNW 19:13:46 84° W 19:19:34 10° S
PSLV R/B 3.7 19:14:51 45° ESE 19:15:22 49° ENE 19:18:45 10° N
CSL-04 Rocket 3.7 19:11:58 10° SSE 19:17:12 79° WSW 19:22:32 10° NNW
Cosmos 2263 4.2 19:12:26 10° NNW 19:18:11 88° ENE 19:21:31 26° SSE
Ariane Rocket 4.2 19:17:38 23° ENE 19:18:39 24° ENE 19:22:42 10° N
CZ-4B R/B 3.4 19:13:42 10° S 19:19:04 71° WSW 19:24:25 10° NNW
MOS 1 4.3 19:17:17 26° SE 19:20:29 62° ENE 19:26:06 10° N
Cosmos 1500 Rocket 4.5 19:20:14 10° SSW 19:24:27 50° WNW 19:28:40 10° N
USA 186 3.3 19:24:40 13° SSW 19:27:15 35° W 19:30:15 10° NNW
Cosmos 773 Rocket 4.4 19:27:42 10° SW 19:32:57 66° WNW 19:38:14 10° NNE
Cosmos 1743 Rocket 4.3 19:30:11 10° SSW 19:34:25 52° WNW 19:38:43 10° N
Cosmos 2237 Rocket 3.8 19:29:58 10° WSW 19:35:05 35° NW 19:40:14 10° NNE
Cosmos 2026 Rocket 4.5 19:30:09 10° NNW 19:36:13 59° W 19:42:11 10° S
USA 267 3.6 19:31:14 17° ENE 19:36:18 61° N 19:42:45 10° W
Helios 1A 4.3 19:32:40 10° N 19:36:29 39° WNW 19:40:17 10° SW
SeaSat 1 4.0 19:33:43 10° NNE 19:38:12 36° NW 19:42:40 10° WSW
NOSS 3-3 (C) 4.4 19:32:56 10° WSW 19:38:33 61° NW 19:45:17 10° NE
Cosmos 2266 Rocket 4.2 19:34:31 10° N 19:40:43 53° ENE 19:42:48 38° SE
Cosmos 724 4.3 19:35:17 10° SW 19:41:04 78° NW 19:46:56 10° NE
Cosmos 1766 2.9 19:41:42 75° S 19:41:59 86° E 19:45:42 10° NNE
Okean O Rocket 2.0 19:41:03 26° S 19:43:24 61° WSW 19:47:48 10° NNW
GEOS 3 Rocket 3.9 19:41:58 33° SSE 19:44:12 60° SW 19:49:20 10° NW
Cosmos 1408 4.4 19:45:26 10° N 19:46:07 16° N 19:46:07 16° N
CZ-4 R/B 3.9 19:48:27 10° SW 19:51:16 19° W 19:54:08 10° NW
SL-24 R/B - RUBIN 2 4.5 19:45:52 10° NW 19:52:21 67° NE 19:54:07 46° ESE
SPOT 5 2.6 19:54:01 56° S 19:54:55 82° WSW 19:59:17 10° NNW
Cosmos 1607 4.4 19:51:40 10° WSW 19:58:05 65° NW 20:04:30 10° NE
Cosmos 2369 Rocket 3.3 19:52:48 10° NW 19:58:08 41° WSW 20:01:28 21° SSW
Okean 2 3.3 19:54:53 10° NNW 19:58:54 74° W 19:59:08 71° SW
ARIANE 6 FM1 Upper Stage 3.5 19:55:20 10° SW 19:58:11 41° SSW 19:58:11 41° SSW
Cosmos 1420 Rocket 4.3 19:55:04 10° NNW 20:00:09 49° ENE 20:00:34 48° ENE
Cosmos 2344 4.1 19:52:56 10° NW 20:00:30 57° NNE 20:05:08 31° E
Terra 1.7 20:00:58 63° E 20:01:07 63° ENE 20:05:47 10° N
BREEZE-M DEB (TANK) 3.7 19:44:41 10° W 20:01:57 67° SSW 20:03:29 48° SE
Aureole 3 3.8 19:58:13 10° N 20:02:46 89° WSW 20:03:54 56° S
Okean 1-7 3.0 20:02:58 10° NNW 20:07:17 76° W 20:07:26 74° WSW
Cosmos 1634 Rocket 4.5 20:01:13 10° SSW 20:07:27 60° WNW 20:13:45 10° N
Cosmos 2228 Rocket 4.5 20:03:21 10° NNW 20:07:34 37° W 20:10:04 21° SW
Cosmos 1633 Rocket 3.3 20:09:44 47° SW 20:10:49 67° WNW 20:15:13 10° N
Resurs 01 Rocket 4.0 20:09:06 10° SW 20:12:23 20° W 20:15:43 10° NW
MetOp-B 4.3 20:11:40 43° SSW 20:13:21 67° WSW 20:18:43 10° NNW
Cosmos 2084 Rocket 3.6 20:09:09 10° SW 20:13:12 69° WNW 20:13:12 69° WNW
Cosmos 1538 Rocket 3.9 20:13:37 64° S 20:14:24 78° ESE 20:19:48 10° NNE
RESURS DK-1 3.8 20:12:03 10° NNW 20:14:56 29° NNE 20:14:56 29° NNE
Cosmos 1656 4.2 20:10:19 10° NNW 20:15:47 44° NE 20:16:15 43° ENE
Meteor 1-24 Rocket 4.1 20:10:54 10° N 20:16:35 47° ENE 20:16:38 47° ENE
Cosmos 1980 Rocket 4.1 20:13:29 10° NNW 20:17:17 18° NNE 20:19:05 16° NE
Okean-O 3.4 20:17:08 41° SW 20:17:57 47° W 20:22:13 10° NNW
USA 306 4.2 20:15:56 10° WNW 20:17:50 28° W 20:17:50 28° W
MOS 1 Rocket 3.9 20:20:11 48° SSW 20:21:30 64° W 20:26:52 10° NNW
SL-08 ROCKET BODY 4.4 20:15:40 10° N 20:21:51 85° W 20:23:17 56° S
Spot 2 Rocket 3.3 20:23:41 82° ENE 20:23:41 82° ENE 20:28:43 10° NNW
ISS -1.4 20:20:52 10° W 20:22:09 20° W 20:22:09 20° W
ERS-1 Rocket 3.0 20:26:14 67° SW 20:26:39 71° WSW 20:31:42 10° NNW
IRS-1A Rocket 4.5 20:27:24 51° SSW 20:28:43 66° WSW 20:34:19 10° NNW
Cosmos 1470 Rocket 4.0 20:33:03 61° NW 20:33:03 61° NW 20:37:10 10° N
Cosmos 1703 Rocket 4.0 20:28:34 10° NNW 20:32:25 60° NW 20:32:25 60° NW
ACS3 Solar Sail 3.4 20:33:50 10° SSW 20:39:23 32° W 20:45:03 10° NNW
SL-16 R/B 3.7 20:35:30 10° WSW 20:40:40 35° NW 20:45:51 10° NNE
SPOT 3 Rocket 3.5 20:41:30 77° NNW 20:41:30 77° NNW 20:46:17 10° NNW
Cosmos 1371 Rocket 4.1 20:35:58 10° NNW 20:40:37 68° N 20:40:37 68° N
Meteor 2-5 Rocket 3.8 20:38:53 10° N 20:44:37 72° NE 20:44:37 72° NE
ATLAS CENTAUR R/B 4.0 20:45:30 10° NW 20:47:44 15° N 20:49:32 12° NNE
Cosmos 1624 Rocket 4.2 20:44:47 10° NNW 20:49:24 68° NNW 20:49:24 68° NNW
Cosmos 1943 3.5 20:49:01 20° SW 20:52:59 63° NW 20:58:39 10° NNE
Cosmos 1603 4.1 20:55:35 52° NNE 20:55:35 52° NNE 20:59:48 10° NNE
Ariane Rocket 3.4 20:57:45 60° WNW 20:57:45 60° WNW 21:02:14 10° NNW
Cosmos 1697 Rocket 3.5 20:53:35 10° NNW 20:58:31 40° NE 20:58:31 40° NE
Meteor 2-10 Rocket 4.4 21:02:20 45° NNE 21:02:20 45° NNE 21:06:15 10° NNE
Cosmos 1655 Rocket 4.1 20:56:34 10° NNW 21:02:56 68° W 21:03:30 65° SW
ATLAS 2AS CENTAUR R/B 2.8 20:56:28 10° NW 21:03:20 62° NE 21:03:49 61° ENE
USA 267 3.2 21:18:34 70° NE 21:19:02 73° NNE 21:25:36 10° WNW
Cosmos 2056 Rocket 4.4 21:16:04 10° NNW 21:20:08 46° WNW 21:20:08 46° WNW
Terra 3.9 21:39:40 20° W 21:39:40 20° W 21:42:38 10° NW
SL-16 R/B 4.1 21:48:12 10° NNW 21:52:29 21° NNE 21:53:04 21° NE
Cosmos 1980 Rocket 3.3 21:57:04 10° NNW 22:00:49 39° N 22:00:49 39° N
Cosmos 2333 Rocket 4.4 22:03:57 10° NNW 22:07:49 18° NNE 22:09:33 16° NE
Cosmos 2344 4.1 22:07:12 10° NW 22:15:07 59° WSW 22:15:07 59° WSW
Cosmos 1697 Rocket 4.4 22:37:37 10° NW 22:40:13 26° NW 22:40:13 26° NW
Cosmos 2360 Rocket 4.0 22:46:03 10° NNW 22:50:33 25° NE 22:50:33 25° NE
ATLAS 2AS CENTAUR R/B 4.0 22:47:41 10° NW 22:51:13 29° WNW 22:51:13 29° WNW
Cosmos 2219 Rocket 4.3 22:58:41 10° NNW 23:02:51 20° NNE 23:04:14 19° NE
Cosmos 2322 Rocket 3.8 23:03:16 10° NNW 23:07:17 31° NNE 23:07:17 31° NNE
Cosmos 2082 Rocket 4.0 23:26:45 26° NE 23:26:45 26° NE 23:29:10 10° NE
SL-16 R/B 3.8 23:31:57 10° NNW 23:34:52 31° NNW 23:34:52 31° NNW
CZ-3B R/B 4.4 23:24:18 10° WNW 23:36:26 45° W 23:36:26 45° W
Cosmos 1980 Rocket 4.5 23:41:25 10° NW 23:42:32 15° NW 23:42:32 15° NW
Cosmos 2333 Rocket 3.6 23:47:55 10° NNW 23:51:31 35° N 23:51:31 35° N
